• In Uzbekistan
  • List of Countries
  • For 7 days
  • Water Temperature
  • Satellite Maps
  • Weather Map
  • Weather Widgets
  • user-avatar
    Login

    Hourly Weather Kpalime

    Today, 23 October, Tuesday

    Time Temperature Precipitation Wind Pressure Humidity
    00:00 +26°C° 0 mm 1 mps 737 mmHg 91%
    01:00 +26°C° 0 mm 1 mps 737 mmHg 91%
    02:00 +26°C° 0 mm 1 mps 736 mmHg 92%
    03:00 +25°C° 0 mm 1 mps 736 mmHg 93%
    04:00 +25°C° 0 mm 1 mps 736 mmHg 93%
    05:00 +25°C° 0 mm 1 mps 736 mmHg 93%
    06:00 +25°C° 0 mm 1 mps 737 mmHg 93%
    07:00 +27°C° 0 mm 1 mps 737 mmHg 86%
    08:00 +29°C° 0 mm 1 mps 738 mmHg 79%
    09:00 +30°C° 0 mm 1 mps 738 mmHg 72%
    10:00 +32°C° 0 mm 1 mps 738 mmHg 65%
    11:00 +34°C° 0 mm 1 mps 737 mmHg 59%
    12:00 +35°C° 0 mm 1 mps 737 mmHg 53%
    13:00 +35°C° 0.2 mm 1 mps 736 mmHg 53%
    14:00 +35°C° 0.2 mm 1 mps 736 mmHg 53%
    15:00 +35°C° 0.2 mm 1 mps 735 mmHg 53%
    16:00 +33°C° 0.1 mm 1 mps 735 mmHg 60%
    17:00 +31°C° 0.1 mm 1 mps 735 mmHg 67%
    18:00 +29°C° 0.1 mm 1 mps 736 mmHg 74%
    19:00 +28°C° 0.1 mm 2 mps 736 mmHg 78%
    20:00 +28°C° 0.1 mm 2 mps 737 mmHg 82%
    21:00 +27°C° 0.1 mm 2 mps 738 mmHg 87%
    22:00 +27°C° 0 mm 2 mps 737 mmHg 89%
    23:00 +26°C° 0 mm 2 mps 737 mmHg 91%

    Tomorrow, 24 October, Wednesday

    Time Temperature Precipitation Wind Pressure Humidity
    00:00 +26°C° 0 mm 2 mps 737 mmHg 92%
    01:00 +26°C° 0 mm 2 mps 737 mmHg 93%
    02:00 +26°C° 0 mm 2 mps 736 mmHg 94%
    03:00 +25°C° 0 mm 2 mps 736 mmHg 94%
    04:00 +25°C° 0 mm 2 mps 736 mmHg 94%
    05:00 +25°C° 0 mm 1 mps 736 mmHg 94%
    06:00 +25°C° 0 mm 1 mps 736 mmHg 95%
    07:00 +27°C° 0 mm 1 mps 737 mmHg 87%
    08:00 +28°C° 0 mm 2 mps 738 mmHg 80%
    09:00 +30°C° 0 mm 2 mps 738 mmHg 72%
    10:00 +31°C° 0 mm 2 mps 738 mmHg 68%
    11:00 +32°C° 0 mm 2 mps 737 mmHg 64%
    12:00 +34°C° 0 mm 2 mps 737 mmHg 61%
    13:00 +34°C° 0.1 mm 2 mps 736 mmHg 61%
    14:00 +34°C° 0.1 mm 2 mps 735 mmHg 62%
    15:00 +34°C° 0.1 mm 2 mps 735 mmHg 63%
    16:00 +31°C° 0.7 mm 2 mps 735 mmHg 70%
    17:00 +29°C° 0.7 mm 2 mps 736 mmHg 77%
    18:00 +28°C° 0.7 mm 2 mps 736 mmHg 84%
    19:00 +27°C° 0 mm 2 mps 736 mmHg 86%
    20:00 +27°C° 0 mm 2 mps 737 mmHg 88%
    21:00 +26°C° 0 mm 2 mps 738 mmHg 89%
    22:00 +26°C° 0 mm 2 mps 737 mmHg 91%
    23:00 +26°C° 0 mm 2 mps 737 mmHg 92%

    Day after tomorrow, 25 October, Thursday

    Time Temperature Precipitation Wind Pressure Humidity
    00:00 +25°C° 0 mm 2 mps 737 mmHg 93%
    01:00 +25°C° 0 mm 1 mps 736 mmHg 94%
    02:00 +25°C° 0 mm 1 mps 736 mmHg 94%
    03:00 +25°C° 0 mm 1 mps 735 mmHg 95%
    04:00 +25°C° 0 mm 1 mps 736 mmHg 95%
    05:00 +25°C° 0 mm 1 mps 736 mmHg 96%
    06:00 +24°C° 0 mm 1 mps 736 mmHg 96%
    07:00 +26°C° 0 mm 1 mps 737 mmHg 87%
    08:00 +28°C° 0 mm 2 mps 737 mmHg 79%
    09:00 +30°C° 0 mm 2 mps 738 mmHg 70%
    10:00 +32°C° 0 mm 2 mps 737 mmHg 64%
    11:00 +34°C° 0 mm 2 mps 737 mmHg 58%
    12:00 +35°C° 0 mm 2 mps 736 mmHg 52%
    13:00 +35°C° 0.2 mm 2 mps 736 mmHg 54%
    14:00 +35°C° 0.2 mm 2 mps 735 mmHg 57%
    15:00 +34°C° 0.2 mm 2 mps 735 mmHg 59%
    16:00 +32°C° 0.3 mm 2 mps 735 mmHg 65%
    17:00 +30°C° 0.3 mm 2 mps 735 mmHg 71%
    18:00 +29°C° 0.3 mm 2 mps 735 mmHg 77%
    19:00 +28°C° 0 mm 2 mps 736 mmHg 81%
    20:00 +27°C° 0 mm 2 mps 737 mmHg 85%
    21:00 +27°C° 0 mm 2 mps 737 mmHg 88%
    22:00 +26°C° 0 mm 1 mps 737 mmHg 90%
    23:00 +26°C° 0 mm 1 mps 737 mmHg 92%

    26 October, Friday

    Time Temperature Precipitation Wind Pressure Humidity
    00:00 +26°C° 0 mm 1 mps 737 mmHg 93%
    01:00 +25°C° 0 mm 1 mps 736 mmHg 94%
    02:00 +25°C° 0 mm 1 mps 736 mmHg 95%
    03:00 +25°C° 0 mm 1 mps 735 mmHg 96%
    04:00 +25°C° 0 mm 1 mps 736 mmHg 96%
    05:00 +25°C° 0 mm 1 mps 736 mmHg 96%
    06:00 +25°C° 0 mm 1 mps 737 mmHg 96%
    07:00 +27°C° 0 mm 1 mps 737 mmHg 88%
    08:00 +28°C° 0 mm 2 mps 737 mmHg 80%
    09:00 +30°C° 0 mm 2 mps 738 mmHg 72%
    10:00 +31°C° 0 mm 2 mps 737 mmHg 67%
    11:00 +32°C° 0 mm 2 mps 737 mmHg 62%
    12:00 +35°C° 0 mm 2 mps 736 mmHg 57%
    13:00 +34°C° 0.3 mm 2 mps 736 mmHg 58%
    14:00 +34°C° 0.3 mm 2 mps 735 mmHg 59%
    15:00 +34°C° 0.3 mm 2 mps 735 mmHg 60%
    16:00 +32°C° 0.3 mm 2 mps 735 mmHg 65%
    17:00 +30°C° 0.3 mm 2 mps 736 mmHg 71%
    18:00 +29°C° 0.3 mm 2 mps 736 mmHg 76%
    19:00 +28°C° 0.1 mm 2 mps 737 mmHg 79%
    20:00 +27°C° 0.1 mm 2 mps 737 mmHg 83%
    21:00 +27°C° 0.1 mm 2 mps 738 mmHg 86%
    22:00 +26°C° 0 mm 2 mps 737 mmHg 88%
    23:00 +26°C° 0 mm 2 mps 737 mmHg 89%

    27 October, Saturday

    Time Temperature Precipitation Wind Pressure Humidity
    00:00 +25°C° 0 mm 1 mps 736 mmHg 91%
    01:00 +25°C° 0 mm 1 mps 736 mmHg 92%
    02:00 +25°C° 0 mm 1 mps 736 mmHg 93%
    03:00 +25°C° 0 mm 1 mps 736 mmHg 94%
    04:00 +25°C° 0 mm 1 mps 737 mmHg 94%
    05:00 +25°C° 0 mm 1 mps 737 mmHg 95%
    06:00 +25°C° 0 mm 1 mps 737 mmHg 95%
    07:00 +27°C° 0 mm 1 mps 738 mmHg 86%
    08:00 +29°C° 0 mm 1 mps 738 mmHg 78%
    09:00 +31°C° 0 mm 1 mps 739 mmHg 69%
    10:00 +31°C° 0 mm 1 mps 738 mmHg 66%
    11:00 +32°C° 0 mm 1 mps 737 mmHg 63%
    12:00 +33°C° 0 mm 1 mps 737 mmHg 60%
    13:00 +33°C° 0.3 mm 1 mps 736 mmHg 59%
    14:00 +33°C° 0.3 mm 1 mps 735 mmHg 59%
    15:00 +33°C° 0.3 mm 1 mps 735 mmHg 59%
    16:00 +32°C° 0.3 mm 1 mps 735 mmHg 65%
    17:00 +30°C° 0.3 mm 1 mps 736 mmHg 71%
    18:00 +29°C° 0.3 mm 1 mps 736 mmHg 77%
    19:00 +28°C° 0.2 mm 1 mps 737 mmHg 81%
    20:00 +27°C° 0.2 mm 1 mps 737 mmHg 84%
    21:00 +27°C° 0.2 mm 1 mps 738 mmHg 87%
    22:00 +26°C° 0 mm 1 mps 737 mmHg 88%
    23:00 +26°C° 0 mm 2 mps 737 mmHg 89%

    28 October, Sunday

    Time Temperature Precipitation Wind Pressure Humidity
    00:00 +25°C° 0 mm 2 mps 737 mmHg 91%
    01:00 +25°C° 0 mm 1 mps 736 mmHg 91%
    02:00 +25°C° 0 mm 1 mps 736 mmHg 92%
    03:00 +25°C° 0 mm 1 mps 736 mmHg 93%
    04:00 +25°C° 0 mm 1 mps 736 mmHg 93%
    05:00 +25°C° 0 mm 1 mps 737 mmHg 94%
    06:00 +25°C° 0 mm 1 mps 738 mmHg 94%
    07:00 +26°C° 0 mm 1 mps 738 mmHg 86%
    08:00 +28°C° 0 mm 1 mps 738 mmHg 77%
    09:00 +30°C° 0 mm 2 mps 739 mmHg 69%
    10:00 +32°C° 0.1 mm 1 mps 738 mmHg 64%
    11:00 +33°C° 0.1 mm 1 mps 737 mmHg 59%
    12:00 +34°C° 0.1 mm 1 mps 737 mmHg 54%
    13:00 +34°C° 0.8 mm 1 mps 736 mmHg 57%
    14:00 +33°C° 0.8 mm 1 mps 736 mmHg 60%
    15:00 +33°C° 0.8 mm 1 mps 735 mmHg 62%
    16:00 +31°C° 1 mm 1 mps 735 mmHg 69%
    17:00 +29°C° 1 mm 1 mps 736 mmHg 75%
    18:00 +28°C° 1 mm 1 mps 736 mmHg 82%
    19:00 +28°C° 0 mm 1 mps 737 mmHg 84%
    20:00 +27°C° 0 mm 1 mps 737 mmHg 86%
    21:00 +27°C° 0 mm 1 mps 737 mmHg 88%
    22:00 +26°C° 0 mm 1 mps 737 mmHg 89%
    23:00 +26°C° 0 mm 1 mps 737 mmHg 90%

    29 October, Monday

    Time Temperature Precipitation Wind Pressure Humidity
    00:00 +26°C° 0 mm 1 mps 737 mmHg 91%
    01:00 +26°C° 0 mm 1 mps 736 mmHg 92%
    02:00 +26°C° 0 mm 1 mps 736 mmHg 93%
    03:00 +25°C° 0 mm 1 mps 736 mmHg 94%
    04:00 +25°C° 0 mm 1 mps 736 mmHg 94%
    05:00 +25°C° 0 mm 1 mps 736 mmHg 95%
    06:00 +25°C° 0 mm 1 mps 737 mmHg 95%
    07:00 +27°C° 0 mm 1 mps 737 mmHg 88%
    08:00 +28°C° 0 mm 2 mps 738 mmHg 80%
    09:00 +30°C° 0 mm 2 mps 738 mmHg 73%
    10:00 +31°C° 0.4 mm 2 mps 737 mmHg 68%
    11:00 +32°C° 0.4 mm 2 mps 737 mmHg 63%
    12:00 +35°C° 0.4 mm 2 mps 736 mmHg 58%
    13:00 +34°C° 1.5 mm 2 mps 736 mmHg 61%
    14:00 +32°C° 1.5 mm 2 mps 735 mmHg 64%
    15:00 +32°C° 1.5 mm 2 mps 734 mmHg 67%
    16:00 +30°C° 3.4 mm 1 mps 735 mmHg 74%
    17:00 +29°C° 3.4 mm 1 mps 735 mmHg 81%
    18:00 +27°C° 3.4 mm 1 mps 736 mmHg 88%
    19:00 +27°C° 0.7 mm 1 mps 736 mmHg 89%
    20:00 +27°C° 0.7 mm 1 mps 736 mmHg 90%
    21:00 +26°C° 0.7 mm 1 mps 737 mmHg 91%
    22:00 +26°C° 0.2 mm 1 mps 737 mmHg 91%
    23:00 +26°C° 0.2 mm 1 mps 737 mmHg 92%
    Show more